Time,TemperatureF,DewpointF,PressureIn,WindDirection,WindDirectionDegrees,WindSpeedMPH,WindSpeedGustMPH,Humidity,HourlyPrecipIn,Conditions,Clouds,dailyrainin,SolarRadiationWatts/m^2,SoftwareType,DateUTC
2013-01-30 00:01:00,14.0,10.0,-100.00,WSW,248,5.0,7.0,85,0.00,,,0.07,0.000000,,2013-01-30 07:01:00,
2013-01-30 00:11:00,14.0,10.0,-100.00,WSW,248,5.0,7.0,85,0.00,,,0.07,0.000000,,2013-01-30 07:11:00,
2013-01-30 00:21:00,14.0,10.0,-100.00,WSW,248,5.0,7.0,85,0.00,,,0.07,0.000000,,2013-01-30 07:21:00,
2013-01-30 00:31:00,14.0,10.0,-100.00,WSW,248,5.0,7.0,85,0.00,,,0.07,0.000000,,2013-01-30 07:31:00,
2013-01-30 00:52:00,14.0,8.0,-100.00,WNW,284,6.0,7.0,77,0.00,,,0.07,0.000000,,2013-01-30 07:52:00,
2013-01-30 01:01:00,14.0,8.0,-100.00,WNW,284,6.0,7.0,77,0.00,,,0.07,0.000000,,2013-01-30 08:01:00,
2013-01-30 01:11:00,14.0,8.0,-100.00,WNW,284,6.0,7.0,77,0.00,,,0.07,0.000000,,2013-01-30 08:11:00,
2013-01-30 01:21:00,14.0,8.0,-100.00,WNW,284,6.0,7.0,77,0.00,,,0.07,0.000000,,2013-01-30 08:21:00,
2013-01-30 01:32:00,14.0,8.0,-100.00,WNW,284,6.0,7.0,77,0.00,,,0.07,0.000000,,2013-01-30 08:32:00,
2013-01-30 01:52:00,14.0,8.0,-100.00,SW,216,4.0,6.0,75,0.00,,,0.07,0.000000,,2013-01-30 08:52:00,
2013-01-30 02:01:00,14.0,8.0,-100.00,SW,216,4.0,6.0,75,0.00,,,0.07,0.000000,,2013-01-30 09:01:00,
2013-01-30 02:11:00,14.0,8.0,-100.00,SW,216,4.0,6.0,75,0.00,,,0.07,0.000000,,2013-01-30 09:11:00,
2013-01-30 02:21:00,14.0,8.0,-100.00,SW,216,4.0,6.0,75,0.00,,,0.07,0.000000,,2013-01-30 09:21:00,
2013-01-30 02:31:00,14.0,8.0,-100.00,SW,216,4.0,6.0,75,0.00,,,0.07,0.000000,,2013-01-30 09:31:00,
2013-01-30 03:01:00,14.0,8.0,-100.00,SW,214,4.0,6.0,76,0.00,,,0.07,0.000000,,2013-01-30 10:01:00,
2013-01-30 03:11:00,14.0,8.0,-100.00,SW,214,4.0,6.0,76,0.00,,,0.07,0.000000,,2013-01-30 10:11:00,
2013-01-30 03:21:00,14.0,8.0,-100.00,SW,214,4.0,6.0,76,0.00,,,0.07,0.000000,,2013-01-30 10:21:00,
2013-01-30 03:31:00,14.0,8.0,-100.00,SW,214,4.0,6.0,76,0.00,,,0.07,0.000000,,2013-01-30 10:31:00,
2013-01-30 03:52:00,12.0,8.0,-100.00,West,267,4.0,10.0,85,0.00,,,0.07,0.000000,,2013-01-30 10:52:00,
2013-01-30 04:02:00,12.0,8.0,-100.00,West,267,4.0,10.0,85,0.00,,,0.07,0.000000,,2013-01-30 11:02:00,
2013-01-30 04:11:00,12.0,8.0,-100.00,West,267,4.0,10.0,85,0.00,,,0.07,0.000000,,2013-01-30 11:11:00,
2013-01-30 04:21:00,12.0,8.0,-100.00,West,267,4.0,10.0,85,0.00,,,0.07,0.000000,,2013-01-30 11:21:00,
2013-01-30 04:32:00,12.0,8.0,-100.00,West,267,4.0,10.0,85,0.00,,,0.07,0.000000,,2013-01-30 11:32:00,
2013-01-30 04:52:00,15.0,10.0,-100.00,WSW,255,6.0,10.0,80,0.00,,,0.07,0.000000,,2013-01-30 11:52:00,
2013-01-30 05:02:00,15.0,10.0,-100.00,WSW,255,6.0,10.0,80,0.00,,,0.07,0.000000,,2013-01-30 12:02:00,
2013-01-30 05:12:00,15.0,10.0,-100.00,WSW,255,6.0,10.0,80,0.00,,,0.07,0.000000,,2013-01-30 12:12:00,
2013-01-30 05:22:00,15.0,10.0,-100.00,WSW,255,6.0,10.0,80,0.00,,,0.07,0.000000,,2013-01-30 12:22:00,
2013-01-30 05:32:00,15.0,10.0,-100.00,WSW,255,6.0,10.0,80,0.00,,,0.07,0.000000,,2013-01-30 12:32:00,
2013-01-30 06:02:00,15.0,9.0,-100.00,WSW,244,0.0,8.0,78,0.00,,,0.07,0.000000,,2013-01-30 13:02:00,
2013-01-30 06:12:00,15.0,9.0,-100.00,WSW,244,0.0,8.0,78,0.00,,,0.07,0.000000,,2013-01-30 13:12:00,
2013-01-30 06:22:00,15.0,9.0,-100.00,WSW,244,0.0,8.0,78,0.00,,,0.07,0.000000,,2013-01-30 13:22:00,
2013-01-30 06:32:00,15.0,9.0,-100.00,WSW,244,0.0,8.0,78,0.00,,,0.07,0.000000,,2013-01-30 13:32:00,
2013-01-30 06:53:00,15.0,10.0,-100.00,SSE,154,5.0,6.0,80,0.00,,,0.07,0.000000,,2013-01-30 13:53:00,
2013-01-30 07:02:00,15.0,10.0,-100.00,SSE,154,5.0,6.0,80,0.00,,,0.07,0.000000,,2013-01-30 14:02:00,
2013-01-30 07:11:00,15.0,10.0,-100.00,SSE,154,5.0,6.0,80,0.00,,,0.07,0.000000,,2013-01-30 14:11:00,
2013-01-30 07:22:00,15.0,10.0,-100.00,SSE,154,5.0,6.0,80,0.00,,,0.07,0.000000,,2013-01-30 14:22:00,
2013-01-30 07:32:00,15.0,10.0,-100.00,SSE,154,5.0,6.0,80,0.00,,,0.07,0.000000,,2013-01-30 14:32:00,
2013-01-30 07:53:00,15.0,11.0,-100.00,South,184,2.0,4.0,84,0.00,,,0.07,1.000000,,2013-01-30 14:53:00,
2013-01-30 08:03:00,15.0,11.0,-100.00,South,184,2.0,4.0,84,0.00,,,0.07,1.000000,,2013-01-30 15:03:00,
2013-01-30 08:12:00,15.0,11.0,-100.00,South,184,2.0,4.0,84,0.00,,,0.07,1.000000,,2013-01-30 15:12:00,
2013-01-30 08:22:00,15.0,11.0,-100.00,South,184,2.0,4.0,84,0.00,,,0.07,1.000000,,2013-01-30 15:22:00,
2013-01-30 08:32:00,15.0,11.0,-100.00,South,184,2.0,4.0,84,0.00,,,0.07,1.000000,,2013-01-30 15:32:00,
2013-01-30 08:53:00,16.0,12.0,-100.00,SSW,212,3.0,5.0,84,0.00,,,0.07,36.000000,,2013-01-30 15:53:00,
2013-01-30 09:03:00,16.0,12.0,-100.00,SSW,212,3.0,5.0,84,0.00,,,0.07,36.000000,,2013-01-30 16:03:00,
2013-01-30 09:12:00,16.0,12.0,-100.00,SSW,212,3.0,5.0,84,0.00,,,0.07,36.000000,,2013-01-30 16:12:00,
2013-01-30 09:22:00,16.0,12.0,-100.00,SSW,212,3.0,5.0,84,0.00,,,0.07,36.000000,,2013-01-30 16:22:00,
2013-01-30 09:32:00,16.0,12.0,-100.00,SSW,212,3.0,5.0,84,0.00,,,0.07,36.000000,,2013-01-30 16:32:00,
2013-01-30 09:52:00,17.0,12.0,-100.00,WSW,241,3.0,6.0,80,0.00,,,0.07,113.000000,,2013-01-30 16:52:00,
2013-01-30 10:02:00,17.0,12.0,-100.00,WSW,241,3.0,6.0,80,0.00,,,0.07,113.000000,,2013-01-30 17:02:00,
2013-01-30 10:12:00,17.0,12.0,-100.00,WSW,241,3.0,6.0,80,0.00,,,0.07,113.000000,,2013-01-30 17:12:00,
2013-01-30 10:22:00,17.0,12.0,-100.00,WSW,241,3.0,6.0,80,0.00,,,0.07,113.000000,,2013-01-30 17:22:00,
2013-01-30 10:31:00,17.0,12.0,-100.00,WSW,241,3.0,6.0,80,0.00,,,0.07,113.000000,,2013-01-30 17:31:00,
2013-01-30 10:53:00,21.0,12.0,-100.00,WSW,247,4.0,8.0,69,0.00,,,0.07,255.000000,,2013-01-30 17:53:00,
2013-01-30 11:02:00,21.0,12.0,-100.00,WSW,247,4.0,8.0,69,0.00,,,0.07,255.000000,,2013-01-30 18:02:00,
2013-01-30 11:12:00,21.0,12.0,-100.00,WSW,247,4.0,8.0,69,0.00,,,0.07,255.000000,,2013-01-30 18:12:00,
2013-01-30 11:22:00,21.0,12.0,-100.00,WSW,247,4.0,8.0,69,0.00,,,0.07,255.000000,,2013-01-30 18:22:00,
2013-01-30 11:32:00,21.0,12.0,-100.00,WSW,247,4.0,8.0,69,0.00,,,0.07,255.000000,,2013-01-30 18:32:00,
2013-01-30 11:53:00,24.0,11.0,-100.00,SSW,209,4.0,10.0,56,0.00,,,0.01,376.000000,,2013-01-30 18:53:00,
2013-01-30 12:02:00,24.0,11.0,-100.00,SSW,209,4.0,10.0,56,0.00,,,0.01,376.000000,,2013-01-30 19:02:00,
2013-01-30 12:12:00,24.0,11.0,-100.00,SSW,209,4.0,10.0,56,0.00,,,0.01,376.000000,,2013-01-30 19:12:00,
2013-01-30 12:22:00,24.0,11.0,-100.00,SSW,209,4.0,10.0,56,0.00,,,0.01,376.000000,,2013-01-30 19:22:00,
2013-01-30 12:32:00,24.0,11.0,-100.00,SSW,209,4.0,10.0,56,0.00,,,0.01,376.000000,,2013-01-30 19:32:00,
2013-01-30 12:53:00,24.0,11.0,-100.00,WSW,249,7.0,14.0,56,0.00,,,0.00,486.000000,,2013-01-30 19:53:00,
2013-01-30 13:03:00,24.0,11.0,-100.00,WSW,249,7.0,14.0,56,0.00,,,0.00,486.000000,,2013-01-30 20:03:00,
2013-01-30 13:11:00,24.0,11.0,-100.00,WSW,249,7.0,14.0,56,0.00,,,0.00,486.000000,,2013-01-30 20:11:00,
2013-01-30 13:21:00,24.0,11.0,-100.00,WSW,249,7.0,14.0,56,0.00,,,0.00,486.000000,,2013-01-30 20:21:00,
2013-01-30 13:32:00,24.0,11.0,-100.00,WSW,249,7.0,14.0,56,0.00,,,0.00,486.000000,,2013-01-30 20:32:00,
2013-01-30 13:53:00,26.0,12.0,-100.00,WSW,247,6.0,12.0,55,0.00,,,0.00,424.000000,,2013-01-30 20:53:00,
2013-01-30 14:03:00,26.0,12.0,-100.00,WSW,247,6.0,12.0,55,0.00,,,0.00,424.000000,,2013-01-30 21:03:00,
2013-01-30 14:11:00,26.0,12.0,-100.00,WSW,247,6.0,12.0,55,0.00,,,0.00,424.000000,,2013-01-30 21:11:00,
2013-01-30 14:22:00,26.0,12.0,-100.00,WSW,247,6.0,12.0,55,0.00,,,0.00,424.000000,,2013-01-30 21:22:00,
2013-01-30 14:31:00,26.0,12.0,-100.00,WSW,247,6.0,12.0,55,0.00,,,0.00,424.000000,,2013-01-30 21:31:00,
2013-01-30 14:52:00,25.0,12.0,-100.00,SW,226,5.0,11.0,56,0.00,,,0.00,358.000000,,2013-01-30 21:52:00,
2013-01-30 15:02:00,25.0,12.0,-100.00,SW,226,5.0,11.0,56,0.00,,,0.00,358.000000,,2013-01-30 22:02:00,
2013-01-30 15:11:00,25.0,12.0,-100.00,SW,226,5.0,11.0,56,0.00,,,0.00,358.000000,,2013-01-30 22:11:00,
2013-01-30 15:22:00,25.0,12.0,-100.00,SW,226,5.0,11.0,56,0.00,,,0.00,358.000000,,2013-01-30 22:22:00,
2013-01-30 15:31:00,25.0,12.0,-100.00,SW,226,5.0,11.0,56,0.00,,,0.00,358.000000,,2013-01-30 22:31:00,
2013-01-30 15:53:00,26.0,15.0,-100.00,SW,230,3.0,7.0,62,0.00,,,0.00,256.000000,,2013-01-30 22:53:00,
2013-01-30 16:02:00,26.0,15.0,-100.00,SW,230,3.0,7.0,62,0.00,,,0.00,256.000000,,2013-01-30 23:02:00,
2013-01-30 16:11:00,26.0,15.0,-100.00,SW,230,3.0,7.0,62,0.00,,,0.00,256.000000,,2013-01-30 23:11:00,
2013-01-30 16:22:00,26.0,15.0,-100.00,SW,230,3.0,7.0,62,0.00,,,0.00,256.000000,,2013-01-30 23:22:00,
2013-01-30 16:32:00,26.0,15.0,-100.00,SW,230,3.0,7.0,62,0.00,,,0.00,256.000000,,2013-01-30 23:32:00,
2013-01-30 16:52:00,24.0,15.0,-100.00,WSW,238,4.0,8.0,69,0.00,,,0.00,116.000000,,2013-01-30 23:52:00,
2013-01-30 17:02:00,24.0,15.0,-100.00,WSW,238,4.0,8.0,69,0.00,,,0.00,116.000000,,2013-01-31 00:02:00,
2013-01-30 17:11:00,24.0,15.0,-100.00,WSW,238,4.0,8.0,69,0.00,,,0.00,116.000000,,2013-01-31 00:11:00,
2013-01-30 17:21:00,24.0,15.0,-100.00,WSW,238,4.0,8.0,69,0.00,,,0.00,116.000000,,2013-01-31 00:21:00,
2013-01-30 17:31:00,24.0,15.0,-100.00,WSW,238,4.0,8.0,69,0.00,,,0.00,116.000000,,2013-01-31 00:31:00,
2013-01-30 17:53:00,21.0,14.0,-100.00,SE,138,4.0,8.0,75,0.00,,,0.00,30.000000,,2013-01-31 00:53:00,
2013-01-30 18:02:00,21.0,14.0,-100.00,SE,138,4.0,8.0,75,0.00,,,0.00,30.000000,,2013-01-31 01:02:00,
2013-01-30 18:11:00,21.0,14.0,-100.00,SE,138,4.0,8.0,75,0.00,,,0.00,30.000000,,2013-01-31 01:11:00,
2013-01-30 18:21:00,21.0,14.0,-100.00,SE,138,4.0,8.0,75,0.00,,,0.00,30.000000,,2013-01-31 01:21:00,
2013-01-30 18:31:00,21.0,14.0,-100.00,SE,138,4.0,8.0,75,0.00,,,0.00,30.000000,,2013-01-31 01:31:00,
2013-01-30 18:52:00,21.0,15.0,-100.00,SE,136,3.0,8.0,78,0.00,,,0.00,0.000000,,2013-01-31 01:52:00,
2013-01-30 19:01:00,21.0,15.0,-100.00,SE,136,3.0,8.0,78,0.00,,,0.00,0.000000,,2013-01-31 02:01:00,
2013-01-30 19:11:00,21.0,15.0,-100.00,SE,136,3.0,8.0,78,0.00,,,0.00,0.000000,,2013-01-31 02:11:00,
2013-01-30 19:21:00,21.0,15.0,-100.00,SE,136,3.0,8.0,78,0.00,,,0.00,0.000000,,2013-01-31 02:21:00,
2013-01-30 19:32:00,21.0,15.0,-100.00,SE,136,3.0,8.0,78,0.00,,,0.00,0.000000,,2013-01-31 02:32:00,
2013-01-30 20:02:00,21.0,15.0,-100.00,SSE,149,2.0,7.0,76,0.00,,,0.00,0.000000,,2013-01-31 03:02:00,
2013-01-30 20:11:00,21.0,15.0,-100.00,SSE,149,2.0,7.0,76,0.00,,,0.00,0.000000,,2013-01-31 03:11:00,
2013-01-30 20:21:00,21.0,15.0,-100.00,SSE,149,2.0,7.0,76,0.00,,,0.00,0.000000,,2013-01-31 03:21:00,
2013-01-30 20:31:00,21.0,15.0,-100.00,SSE,149,2.0,7.0,76,0.00,,,0.00,0.000000,,2013-01-31 03:31:00,
2013-01-30 20:52:00,21.0,14.0,-100.00,SSE,157,2.0,5.0,75,0.00,,,0.00,0.000000,,2013-01-31 03:52:00,
2013-01-30 21:02:00,21.0,14.0,-100.00,SSE,157,2.0,5.0,75,0.00,,,0.00,0.000000,,2013-01-31 04:02:00,
2013-01-30 21:11:00,21.0,14.0,-100.00,SSE,157,2.0,5.0,75,0.00,,,0.00,0.000000,,2013-01-31 04:11:00,
2013-01-30 21:22:00,21.0,14.0,-100.00,SSE,157,2.0,5.0,75,0.00,,,0.00,0.000000,,2013-01-31 04:22:00,
2013-01-30 21:31:00,21.0,14.0,-100.00,SSE,157,2.0,5.0,75,0.00,,,0.00,0.000000,,2013-01-31 04:31:00,
2013-01-30 21:52:00,21.0,14.0,-100.00,SSW,210,1.0,3.0,75,0.00,,,0.00,0.000000,,2013-01-31 04:52:00,
2013-01-30 22:03:00,21.0,14.0,-100.00,SSW,210,1.0,3.0,75,0.00,,,0.00,0.000000,,2013-01-31 05:03:00,
2013-01-30 22:11:00,21.0,14.0,-100.00,SSW,210,1.0,3.0,75,0.00,,,0.00,0.000000,,2013-01-31 05:11:00,
2013-01-30 22:21:00,21.0,14.0,-100.00,SSW,210,1.0,3.0,75,0.00,,,0.00,0.000000,,2013-01-31 05:21:00,
2013-01-30 22:31:00,21.0,14.0,-100.00,SSW,210,1.0,3.0,75,0.00,,,0.00,0.000000,,2013-01-31 05:31:00,